Location: Austin
(30.3000°N, 97.7500°W)
Time: 10:48:05
(UTC-05:00)

Cosmos 1763 Rocket - Pass Details

Date: 26 May 2023
Orbit: 731 x 779 km, 74.0° (Epoch: 31 May)

Event Time Altitude Azimuth Distance (km) Brightness Sun altitude
Rises 23:02:23 0° 343° (NNW) 3,260 7.8 -27.7°
Reaches altitude 10° 23:04:47 10° 343° (NNW) 2,331 6.8 -28.0°
Enters shadow 23:09:34 73° 337° (NNW) 813 3.6 -28.6°
